Location: Newark
(48.1500°N, 13.1167°E)
Time: 00:03:28
(UTC+00:00)

ISS - Pass Details

Date: 17 September 2021
Orbit: 417 x 423 km, 51.6° (Epoch: 18 October)

Event Time Altitude Azimuth Distance (km) Brightness Sun altitude
Rises 19:32:58 0° 244° (WSW) 2,357 0.5 -22.5°
Reaches altitude 10° 19:35:03 10° 243° (WSW) 1,496 -0.6 -22.8°
Enters shadow 19:36:48 28° 242° (WSW) 811 -2.1 -23.1°
